Location: Jackson Park
(37.2862°N, 79.9123°W)
Time: 11:38:05
(UTC+00:00)

Vanguard 2 - Pass Details

Date: 13 May 2026
Orbit: 553 x 2894 km, 32.9° (Epoch: 11 June)

Event Time Altitude Azimuth Distance (km) Brightness Sun altitude
Rises 10:01:04 0° 263° (W) 6,731 11.7 -2.9°
Reaches altitude 10° 10:05:40 10° 262° (W) 5,672 11.3 -2.1°
Maximum altitude 10:22:37 74° 182° (S) 2,414 10.0 1.0°
Drops below altitude 10° 10:34:02 10° 99° (E) 3,990 12.4 3.1°
Sets 10:36:41 0° 98° (E) 4,711 12.8 3.6°
